Regional Weather Roundup
Issued by NWS

Home | Current Version | Previous Version | Text Only | Print | Product List | Glossary On
Versions: 1 2 3 4 5 6 7 8 9 10 11 12 13 14 15 16 17 18 19 20 21 22 23 24 25 26 27 28 29 30 31 32 33 34 35 36 37 38 39 40 41 42 43 44 45 46 47 48 49 50
000
ASHW40 PHFO 300343
RWRHI

WEATHER ROUNDUP FOR HAWAII
NATIONAL WEATHER SERVICE HONOLULU HI
500 PM HST THU JAN 29 2015

THIS IS AN AUTOMATED REPORT THAT HAS NOT BEEN QUALITY CONTROLLED.

NOTE..."FAIR" INDICATES FEW OR NO CLOUDS BELOW 12,000 FEET WITH NO
SIGNIFICANT WEATHER AND/OR OBSTRUCTIONS TO VISIBILITY.

* - THESE SITES REPORT LIMITED FIELDS

HIZ001>004-300400-
KAUAI-NIIHAU-

CITY           SKY/WX    TMP DP  RH WIND       PRES   REMARKS
LIHUE APT      SUNNY     79  61  53 SW14      29.83R
PORT ALLEN*      N/A     79 N/A N/A W9          N/A
POIPU*           N/A     77 N/A N/A SW9G16      N/A
PRINCEVILLE*     N/A     72 N/A N/A MISG        N/A
KOKOLE POINT*  NOT AVBL
MOLOAA DAIRY*  NOT AVBL
WAIMEA HTS*      N/A     75  57  53 W7G13       N/A
PUU OPAE*        N/A     64  55  72 CALM        N/A
PUU LUA*       NOT AVBL
MAKAHA RIDGE*  NOT AVBL
$$

HIZ005>011-300400-
OAHU-

CITY           SKY/WX    TMP DP  RH WIND       PRES   REMARKS
HONOLULU       PTSUNNY   77  67  71 SW14      29.84S
KALAELOA       CLOUDY    77  65  66 SW14      29.86R
KANEOHE MCB    PTSUNNY   77  66  69 S9G21     29.79R
WHEELER FIELD  FAIR      73  64  73 S8        29.86S
BELLOWS*         N/A    N/A N/A N/A SW9G15      N/A
KAHUKU*          N/A    N/A N/A N/A SW5         N/A
WHEELER*       NOT AVBL
WAIANAE HARBOR NOT AVBL
DILLINGHAM*      N/A     75  64  69 MISG        N/A
KAHUKU TRN*      N/A     75  66  73 SW3G12      N/A
KAWAILOA*        N/A     70  63  78 SW13G22     N/A
KII*             N/A     77  64  65 SW3G15      N/A
MAKUA RANGE*     N/A     75  66  73 SW8G18      N/A
OAHU FOREST NW   N/A    N/A N/A N/A CALM        N/A
SCHOFIELD BRK*   N/A     70  63  78 MISG        N/A
SCHOFIELD S*   NOT AVBL
WAIANAE VLY*     N/A     70  64  83 S5G12       N/A
KUAOKALA*        N/A     72  63  73 CALM        N/A
HONOULIUULI*   NOT AVBL
MOKUOLOE IS*     N/A    N/A N/A N/A MISG        N/A
PALEHUA*         N/A     77  68  73 CALM        N/A
WAIAWA PHB*    NOT AVBL
$$

HIZ012>013-300400-
MOLOKAI-

CITY           SKY/WX    TMP DP  RH WIND       PRES   REMARKS
MOLOKAI AIRPT  CLOUDY    75  67  76 S15G25    29.86S
KALAUPAPA      NOT AVBL
MAKAPULAPAI*     N/A     79  64  61 NW3G20      N/A
MOLOKAI 1*       N/A     66  66 100 SE5G17      N/A
PUU ALII*        N/A     61  58  91 S3G17       N/A
$$

HIZ016-300400-
KAHOOLAWE-

CITY           SKY/WX    TMP DP  RH WIND       PRES   REMARKS
KAHOOLAWE*       N/A     72 N/A N/A S14G21      N/A
HAKIOAWA*        N/A     73  65  74 MISG      30.28S
HONOKANAIA*      N/A     79  66  64 SE13G20   29.88F
KANELOA*         N/A     77  66  69 MISG      29.11F
KEALIALALO*    NOT AVBL
LUA MAKIKA*    NOT AVBL
$$

HIZ014>015-300400-
LANAI-

CITY           SKY/WX    TMP DP  RH WIND       PRES   REMARKS
LANAI CITY     PTSUNNY   74  65  73 S15       29.92S
LANAI 1*         N/A     72  70  94 S16G26      N/A
$$

HIZ017>028-300400-
MAUI-

CITY           SKY/WX    TMP DP  RH WIND       PRES   REMARKS
KAHULUI        MOSUNNY   77  64  64 S17       29.84S
KAPALUA-W MAUI MOSUNNY   77  64  65 S21G26    29.85
HANA AIRPORT   SUNNY     75  63  64 SW5       29.85S
HANA*            N/A     82 N/A N/A E2          N/A
HALEAKALA SUMM   N/A     48  12  23 SW17G30     N/A
MAALAEA BAY*   NOT AVBL
HALEAKALA*     NOT AVBL
KAUPO GAP*       N/A     61  59  94 SE3G18      N/A
KULA 1*          N/A    N/A N/A N/A S12G20      N/A
$$

HIZ023>026-300400-
BIG ISLAND OF HAWAII COAST AND LOWER SLOPES-

CITY           SKY/WX    TMP DP  RH WIND       PRES   REMARKS
KAILUA KONA    MOSUNNY   80  64  58 S17       29.87R
HILO           CLOUDY    77  66  68 N7        29.88R
HONOKAA*       NOT AVBL
KAWAIHAE MWT*    N/A     79 N/A N/A W5          N/A
KAWAIHAE*        N/A     79 N/A N/A W2          N/A
SOUTH POINT*     N/A     75 N/A N/A SW9G15      N/A
UPOLU AIRPORT*   N/A    N/A N/A N/A SW9G18      N/A
KAMUELA*       NOT AVBL
HAKALAU*         N/A     53  53 100 S6G12       N/A
KALOKO-HONOKO*   N/A     81  64  57 S10       29.87S
PALI 2*          N/A    N/A N/A N/A SW6G12      N/A
KEALAKOMO*       N/A     81  66  61 S8          N/A
KAUPULEHU*       N/A     73  59  60 E9          N/A
KAPAPALA*        N/A     73  62  67 CALM        N/A
LOWER KAHUKU*    N/A     70  55  60 W3G13       N/A
PUHE CS*         N/A     79  64  61 W2          N/A
PUHO CS*         N/A     81  62  52 SW3         N/A
PTA KEAMUKU*     N/A     64  55  72 CALM        N/A
WAIKOLOA*        N/A    N/A N/A N/A NW5G12      N/A
$$

HIZ027>028-300400-
BIG ISLAND OF HAWAII INTERIOR AND SUMMMITS-

CITY           SKY/WX    TMP DP  RH WIND       PRES   REMARKS
BRADSHAW FIELD MOSUNNY   60  51  73 W5        30.21R
MK VISITOR CEN NOT AVBL
MAUNA KEA*       N/A     34   5  29 NW33        N/A  WCI  19
MAUNA LOA*       N/A    N/A N/A N/A MISG        N/A
MAUNA LOA 1*   NOT AVBL
PTA KIPUKA*      N/A     61  50  67 SW12G20     N/A
PTA RANGE 17*    N/A     63  50  63 SW10G17     N/A
PTA WEST*        N/A     66  54  63 SW10G18     N/A
NENE CABIN*      N/A    N/A N/A N/A S8G15       N/A
AHUMOA*          N/A     56  48  74 S13G22      N/A
PTA PORTABLE*  NOT AVBL
PUU MALI*      NOT AVBL
$$

HIC003-300400-
NORTHWEST ISLANDS-

CITY           SKY/WX    TMP DP  RH WIND       PRES   REMARKS
MIDWAY ISLAND  CLOUDY    57  41  54 N12       30.14F
MIDWAY NOS*    NOT AVBL
FRENCH FRIGATE NOT AVBL
$$

PHZ110>124-180-300400-
BUOY REPORTS

STATION/POSITION TIME  TEMP    WIND        PRES    WAVE   SWELL
                       AIR SEA DIR/SP/G            HT/PER HT/DIR
                 (UTC) (F)     (DEG/KT/KT) (MB)    (FT/S) (FT/D)
BUOY 51001       NOT AVBL
BUOY 51101       0300   70 72  250/ 23/ 31 1009.3R   9/13   5/290
BUOY 51100       0200   75     230/ 17       N/A
BUOY 51003       0300   76 79  230/  6/  8 1011.3F   7/14   7
BUOY 51004       0230   77 78  120/ 10/ 12 1010.8R   6/15   5/340
BARBERS PT BUOY  NOT AVBL
WAIMEA BAY BUOY  0300      77                N/A     6/14   5/320
KAILUA BAY BUOY  0300      76                N/A     4/11   2/360
LANAI BUOY       0300      77                N/A     4/14   3/290
BARBERS PT 2     0300      77                N/A     5/13   3/300
PAUWELA MAUI     0300      76                N/A     7/14   5/320
HILO             0300      77                N/A     5/13   3/340
KANEOHE BAY BUOY 0300      75                N/A     4/13   2
HANALEI KAUAI    NOT AVBL
KAHULUI HARBOR   0300   76 77  190/ 19/ 24 1009.5F
HONOLULU HARBOR  0300   76 76  240/  9/ 12 1010.7R
KILO NALU        NOT AVBL
HILO HARBOR      NOT AVBL
MOKUOLOE         0300      76              1009.9R
NAWILIWILI       0300      76                N/A
WHOTS BUOY       NOT AVBL
BUOY 51028       NOT AVBL
$$

......................KEY........................................
  SKY/WX - SKY CONDITIONS/PRESENT WEATHER
  TMP    - TEMPERATURE IN FAHRENHEIT
  DWPT   - DEWPOINT IN FAHRENHEIT
  RH     - RELATIVE HUMIDITY IN PERCENT
  WIND   - DIRECTION AND SPEED /MPH FOR ISLANDS...KTS FOR BUOYS/
  PRES   - MEAN SEA LEVEL PRESSURE IN INCHES OF HG
  VSB    - VISIBILITY IN MILES
  HX     - HEAT INDEX
  WCI    - WIND CHILL INDEX
  VRB    - VARIABLE WIND DIRECTION
  N/A    - NOT AVAILABLE



USA.gov is the U.S. government's official web portal to all federal, state and local government web resources and services.